Lapse_Rate
5.4 5.4 5.7 5.7 5.7 5.8 5.9 5.8 5.8 5.9 6.0 6.1 6.2 6.2 6.2 6.3 6.5 6.5 6.5 6.4 6.5 6.6 6.5 6.4 6.2 6.2 6.1 6.3 7.3 5.6 5.8 5.5 5.9 5.9 6.0 5.7 5.4 5.4 5.4 5.7 5.3 4.4 6.1 5.8 6.0 6.0 6.2
5.5 5.7 5.8 5.7 5.6 5.7 5.7 5.7 5.8 5.9 6.0 6.0 6.0 6.0 6.2 6.3 6.2 6.2 6.1 6.3 6.5 6.4 6.3 6.3 6.1 5.8 5.9 6.5 6.1 6.5 6.1 5.8 5.2 5.2 5.4 5.5 5.4 5.3 4.6 4.9 4.8 4.9 4.9 5.0 5.3 6.0 5.7
5.5 5.5 5.6 5.5 5.4 5.5 5.5 5.7 5.8 5.9 6.0 6.0 6.1 6.2 6.0 6.1 6.0 6.0 6.0 6.0 6.0 6.1 6.1 5.9 5.8 5.7 5.7 6.6 5.7 6.0 6.0 5.7 5.4 5.1 4.9 4.8 4.7 4.2 4.3 4.3 4.4 4.4 4.3 4.5 4.9 5.4 5.3
5.6 5.6 5.7 5.6 5.5 5.5 5.6 5.7 5.8 5.9 5.9 5.9 5.8 5.6 5.4 5.6 5.6 5.4 5.3 5.3 5.4 5.6 5.7 5.7 5.6 5.7 6.1 6.1 6.2 5.7 5.5 5.6 5.1 5.0 4.9 4.6 4.2 3.7 3.9 4.0 4.0 4.6 4.3 4.3 5.0 5.6 5.9
5.6 5.6 5.5 5.6 5.6 5.7 5.7 5.9 6.0 6.1 5.9 5.7 5.7 5.5 5.0 5.1 5.1 5.3 5.3 5.2 5.3 5.4 5.6 5.5 5.5 5.6 5.7 5.9 6.3 5.8 5.7 5.8 5.2 5.1 4.7 4.7 4.6 4.5 4.0 3.8 3.8 4.0 4.1 4.5 4.8 6.1 5.7
5.5 5.4 5.7 5.8 5.8 5.8 5.9 5.9 5.8 5.7 5.6 5.4 5.3 5.1 5.0 4.8 4.8 5.3 5.3 5.5 5.4 5.5 5.7 5.4 5.5 5.5 5.6 5.2 5.8 5.4 5.0 5.0 5.0 4.8 4.3 4.6 4.3 4.2 3.8 3.9 3.3 4.2 4.0 4.1 4.0 6.0 5.6
5.6 5.6 5.8 5.8 5.8 5.8 5.8 5.8 5.7 5.5 5.3 5.2 4.9 5.0 5.0 4.6 4.8 5.0 5.2 5.3 5.3 5.5 6.3 5.8 5.6 5.9 5.6 4.9 5.1 5.1 4.4 4.2 4.4 4.6 4.7 4.8 4.1 3.8 4.9 5.5 5.5 4.9 4.6 4.6 4.6 6.1 5.5
5.6 5.6 5.6 5.6 5.6 5.6 5.6 5.5 5.5 5.3 5.1 5.1 5.1 5.0 5.0 4.7 4.8 4.9 5.0 4.9 4.9 4.6 5.1 6.0 6.3 5.9 5.7 4.7 5.0 4.4 4.1 3.9 3.7 4.1 4.5 3.9 4.0 5.0 5.1 4.7 4.8 4.7 4.4 4.2 4.8 5.4 5.7
5.5 5.5 5.6 5.5 5.5 5.5 5.4 5.2 5.3 5.2 5.2 5.2 5.1 4.9 5.0 4.8 4.9 4.9 5.0 4.8 4.9 4.6 4.8 5.5 5.1 5.3 4.9 5.1 5.0 4.9 4.8 3.9 3.7 3.7 4.4 4.5 4.4 4.9 4.9 4.6 4.4 4.6 4.7 5.3 5.1 5.6 5.7
5.5 5.5 5.4 5.3 5.4 5.4 5.2 5.2 5.3 5.3 5.3 5.3 5.1 4.9 5.0 5.1 5.2 5.2 5.1 4.8 4.7 4.3 4.8 5.3 4.7 4.9 4.9 4.8 4.9 5.2 5.2 4.8 3.6 4.3 4.5 3.7 4.4 5.2 4.8 4.8 5.1 4.7 6.4 5.4 5.3 5.5 4.9
5.4 5.5 5.4 5.3 5.3 5.2 5.2 5.3 5.3 5.3 5.4 5.2 5.0 5.1 5.2 5.1 5.1 5.0 5.0 4.7 4.5 4.2 3.0 4.3 4.2 4.3 4.1 4.4 4.5 4.9 4.7 4.0 4.5 4.2 4.3 4.3 4.8 5.7 5.6 5.8 6.2 5.4 6.1 6.1 5.9 5.8 5.8
5.5 5.4 5.4 5.3 5.2 5.2 5.3 5.4 5.3 5.2 5.3 5.3 5.2 5.3 5.2 5.0 4.7 4.6 4.3 4.1 3.9 4.0 2.0 4.3 3.5 3.1 4.0 4.2 4.3 4.4 4.7 4.3 4.7 4.8 4.7 4.4 5.9 5.4 6.0 6.3 6.5 6.4 6.0 6.3 6.3 6.2 5.3
5.5 5.5 5.3 5.2 5.2 5.3 5.3 5.3 5.3 5.2 5.4 5.3 5.2 5.0 4.7 4.5 4.2 3.9 3.6 3.4 3.7 3.4 4.5 3.2 2.9 2.8 3.1 3.5 4.0 4.0 4.1 4.7 5.5 6.0 5.6 6.1 5.4 6.1 6.5 6.2 6.4 6.5 6.4 5.7 5.7 5.3 4.8
5.3 5.2 5.1 5.2 5.2 5.3 5.3 5.3 5.3 5.4 5.2 4.9 4.6 4.3 4.0 3.7 3.4 3.3 3.1 3.0 2.9 2.3 2.1 1.8 1.9 2.3 3.6 3.1 3.9 4.0 4.5 5.0 5.9 5.6 5.2 5.5 5.1 6.3 7.0 7.4 7.3 7.2 7.3 7.2 6.5 6.5 6.1
5.2 5.3 5.3 5.3 5.2 5.3 5.3 5.2 5.2 4.9 4.6 4.3 4.0 3.7 3.7 3.2 3.0 2.7 2.5 2.3 1.5 1.1 1.1 1.0 1.7 2.8 3.2 3.9 4.4 3.8 5.3 7.0 6.6 6.2 6.1 6.3 6.9 6.5 7.0 7.3 7.3 7.0 7.3 7.1 8.0 8.0 7.1
5.3 5.2 5.2 5.2 5.3 5.2 4.9 4.8 4.6 4.2 3.7 3.4 3.2 3.2 2.9 2.4 1.9 1.8 1.4 1.6 2.0 2.0 2.2 2.4 2.6 2.8 3.4 4.2 4.8 5.8 6.1 6.5 7.1 6.5 5.9 6.3 6.5 7.4 8.0 7.2 6.9 7.4 7.2 7.0 7.4 7.1 7.2
5.3 5.3 5.3 5.3 5.1 4.7 4.5 4.2 3.8 3.3 2.9 2.7 2.7 2.8 2.1 1.7 1.6 1.3 0.9 1.4 1.9 2.5 3.0 3.1 4.1 5.1 5.5 5.7 5.8 6.3 6.5 7.4 7.2 7.1 6.8 6.3 6.3 6.8 7.0 7.4 6.6 6.9 6.6 7.0 6.8 6.8 7.3
5.4 5.3 5.3 4.9 4.6 4.2 3.8 3.3 3.0 2.7 2.5 2.4 2.3 2.3 2.2 1.6 2.1 1.7 2.2 2.3 3.0 3.6 4.8 5.3 5.2 6.1 6.6 7.0 6.8 7.7 7.9 8.0 8.2 8.0 7.5 7.3 6.8 6.7 7.1 7.8 7.8 7.0 6.4 6.0 6.6 6.9 7.0
5.3 5.2 4.8 4.3 3.9 3.6 3.1 2.8 2.6 2.5 2.4 2.1 2.1 2.5 2.3 2.3 2.3 2.3 3.2 4.3 4.7 4.9 5.4 5.0 5.2 6.0 7.0 7.7 7.8 8.0 8.1 8.4 8.1 7.9 7.8 7.8 7.5 7.1 7.6 8.3 7.4 6.7 6.4 6.1 6.0 6.5 6.8
5.0 4.7 4.2 3.6 3.2 3.1 3.0 2.7 2.7 2.6 2.4 2.4 2.5 2.7 2.9 3.2 3.2 4.1 4.9 5.7 5.5 5.7 6.0 6.0 6.1 6.6 7.6 8.2 8.3 8.1 8.1 8.4 8.0 8.1 8.2 7.9 7.8 7.7 7.5 7.5 7.3 6.9 6.6 6.5 6.6 6.3 6.3
4.5 4.0 3.5 3.1 3.0 2.9 2.9 3.0 2.8 2.6 2.8 2.9 2.7 2.8 3.7 4.6 5.5 5.8 5.7 5.8 6.0 5.8 6.0 6.4 6.6 7.5 7.7 7.8 7.9 8.0 8.0 8.3 8.7 8.4 8.1 7.9 7.7 7.9 8.0 7.5 7.6 7.6 7.1 6.7 6.7 6.4 6.4
3.8 3.4 3.2 3.1 3.1 3.0 3.1 3.1 3.2 3.2 3.3 3.1 3.2 3.5 4.4 5.8 6.5 6.4 6.3 6.3 6.4 6.2 7.0 6.5 6.8 7.8 7.9 7.7 7.6 7.8 7.7 8.2 8.0 8.3 7.8 7.5 7.6 7.6 7.9 7.9 7.9 7.3 6.9 6.5 6.4 6.2 5.0
3.6 3.4 3.3 3.3 3.3 3.3 3.2 3.4 3.4 3.4 3.3 3.5 3.9 4.7 5.4 6.3 6.6 6.5 6.5 6.7 6.8 6.9 6.9 7.4 7.4 7.6 8.1 7.9 7.7 7.7 8.0 8.1 8.1 7.9 7.9 7.6 7.5 7.6 7.6 8.0 7.8 6.7 5.6 5.5 4.8 5.1 5.0
3.6 3.4 3.4 3.5 3.4 3.5 3.6 3.7 3.5 3.4 3.6 4.2 5.0 5.5 5.9 6.5 7.0 7.0 7.0 6.9 7.0 7.1 7.2 7.4 7.6 7.6 7.8 7.8 7.9 8.1 8.9 8.6 8.3 8.2 7.7 7.6 7.7 7.8 7.6 7.7 6.9 4.4 4.6 5.2 5.2 4.5 4.4
3.6 3.6 3.6 3.5 3.6 3.7 3.8 3.6 3.6 3.8 4.3 5.4 5.8 5.9 6.4 6.7 7.3 7.3 7.1 7.1 7.1 7.3 7.3 7.6 7.7 7.5 7.6 7.9 7.8 7.9 8.4 8.3 8.2 8.0 7.9 7.7 7.7 7.6 7.8 6.2 4.8 4.9 5.2 5.0 5.0 4.3 4.6
3.7 3.6 3.6 3.8 3.9 3.8 3.7 3.6 3.8 4.4 5.2 6.2 6.5 6.5 6.7 6.7 7.5 7.2 7.2 7.3 7.3 7.3 7.4 7.7 7.8 7.8 7.7 7.8 7.3 7.4 7.6 7.9 8.0 8.1 8.0 7.9 8.0 7.8 7.7 7.4 5.7 4.6 5.0 4.8 4.5 3.6 4.2
3.6 3.8 3.9 3.9 3.8 3.7 3.7 3.8 4.3 5.1 6.0 6.2 6.8 6.8 6.9 7.1 7.4 7.4 7.4 7.6 7.6 7.5 7.4 7.5 7.7 7.6 7.4 7.4 7.4 7.4 7.8 7.7 7.3 7.5 7.4 7.5 7.5 7.3 7.2 6.0 4.2 4.8 5.1 5.1 4.5 3.6 3.9
3.8 4.0 3.9 3.7 3.6 3.6 3.7 4.4 5.3 6.0 5.9 6.1 6.6 7.0 7.0 7.2 7.5 7.6 7.7 7.7 7.7 7.7 7.6 7.6 7.6 7.5 7.5 7.4 7.2 7.2 7.1 7.1 6.9 6.1 6.1 6.0 6.3 5.8 5.8 5.6 4.1 4.8 4.8 5.0 3.8 3.1 3.5
4.0 3.9 3.7 3.6 3.6 3.6 4.3 5.2 5.8 6.0 5.9 6.1 6.2 6.6 7.3 7.4 7.9 7.8 7.9 7.7 7.7 7.5 7.4 7.3 7.2 6.9 6.9 6.7 6.7 6.7 6.7 6.8 6.5 6.1 5.3 5.2 5.0 4.5 4.9 3.6 2.9 3.0 3.6 3.3 3.3 3.4 3.5
Wind_Speed
16 16 17 17 18 19 20 20 21 22 23 24 24 26 27 29 30 30 31 32 32 30 27 24 20 13 6 5 11 11 2 13 10 10 13 13 9 11 7 7 14 14 19 7 18 14 14
16 16 17 17 18 19 19 20 21 23 22 23 25 27 28 30 31 32 34 35 33 31 27 23 18 10 5 10 6 7 8 7 7 10 12 7 9 10 7 9 8 6 19 20 18 21 10
15 16 16 17 18 19 20 21 22 23 23 25 26 28 30 32 33 35 37 37 33 30 27 22 12 10 8 17 3 4 10 5 4 8 6 7 6 5 4 11 13 7 12 10 8 5 7
15 15 17 18 19 20 21 22 22 23 24 24 26 29 32 34 36 38 39 39 34 30 23 12 5 10 8 7 19 12 10 6 8 8 7 5 4 5 5 4 8 4 5 7 6 6 7
15 16 17 18 19 19 20 20 21 23 24 26 27 30 33 35 36 38 41 38 35 11 3 3 6 5 8 3 3 7 9 8 6 5 5 4 3 6 0 2 6 4 11 7 6 8 7
15 17 18 18 19 20 20 21 21 22 24 27 28 30 33 35 37 38 36 39 10 3 2 6 4 3 4 3 2 3 3 6 4 4 2 4 4 5 5 5 19 13 8 7 8 7 10
16 17 18 19 19 21 22 23 23 24 25 27 29 30 32 35 36 36 22 4 6 4 6 5 4 6 6 5 2 2 4 4 5 5 8 6 6 15 19 23 14 6 9 11 6 9 5
16 16 17 19 20 22 23 24 25 26 26 28 29 31 33 35 36 30 8 5 5 5 13 13 18 17 19 6 5 5 5 6 6 9 4 4 21 15 13 13 17 18 18 23 18 13 9
16 17 18 20 21 22 23 24 25 26 28 29 29 30 34 36 39 5 6 5 6 8 7 9 6 5 2 8 6 6 11 4 6 7 11 15 9 17 15 15 18 21 22 21 18 4 7
16 18 19 20 21 23 24 24 25 27 27 28 30 30 32 37 6 8 1 9 10 3 4 5 1 1 2 2 3 7 9 8 7 13 12 14 20 17 15 22 16 21 17 14 11 5 10
17 18 19 20 21 22 23 24 25 27 28 27 29 31 32 26 5 4 8 15 8 1 5 4 3 2 2 2 7 1 1 4 15 8 3 9 4 12 23 28 18 18 8 10 6 5 0
17 17 19 20 21 22 24 25 26 26 27 29 30 32 30 8 3 5 16 10 1 0 6 6 5 11 15 8 4 2 2 2 2 7 17 21 10 6 5 5 18 7 3 3 3 3 9
16 17 18 19 20 21 23 24 25 27 27 29 34 33 21 9 5 14 11 4 2 3 11 10 11 15 16 8 6 11 7 3 5 3 6 6 16 19 9 6 4 2 5 1 3 5 12
15 16 17 18 20 21 22 23 24 26 28 31 33 29 12 3 14 11 4 4 1 8 8 13 14 13 4 17 14 15 10 11 13 13 9 6 12 8 7 17 17 12 16 7 15 8 11
14 15 17 18 19 20 21 22 23 26 27 31 25 5 4 5 14 4 3 4 3 6 14 13 13 7 7 22 8 8 9 6 9 11 5 6 6 13 19 10 10 4 10 20 6 6 1
14 16 17 18 18 20 20 21 22 24 27 30 5 4 4 16 15 4 4 5 5 9 16 9 6 3 13 10 6 11 5 5 11 7 7 7 10 8 10 6 10 15 2 3 8 6 14
15 16 16 16 17 18 19 20 21 23 26 26 3 4 4 18 3 4 4 4 5 10 13 10 14 9 8 4 3 5 6 13 1 11 8 7 5 14 5 3 2 5 4 4 3 4 6
14 15 16 17 17 17 18 20 20 20 25 8 3 3 4 6 5 3 3 7 8 10 12 7 7 6 6 13 6 8 6 5 7 3 8 2 4 4 10 21 14 4 7 9 6 6 3
14 15 16 16 17 17 19 20 19 19 19 2 3 3 4 4 4 4 5 5 3 11 11 6 7 7 11 10 6 3 5 4 10 3 3 3 3 7 9 5 8 4 5 7 5 5 6
14 14 15 16 17 18 19 18 18 19 18 3 2 4 4 4 1 3 5 4 8 7 8 8 12 6 12 16 7 5 8 8 9 9 16 10 3 6 9 16 6 7 7 9 5 3 7
13 15 15 16 17 18 18 18 19 19 20 3 3 2 1 5 3 6 3 4 12 9 2 6 4 9 14 6 10 3 9 11 13 13 2 2 5 4 13 9 14 7 11 14 6 9 2
14 15 15 16 17 17 17 18 19 19 20 3 2 2 3 7 6 5 5 3 8 9 8 7 10 18 14 9 11 18 13 13 10 7 3 1 7 3 11 15 15 5 17 12 16 12 7
13 13 14 14 14 14 15 16 16 16 12 2 2 1 2 4 3 2 3 6 11 13 7 10 13 11 10 10 6 14 18 20 16 13 15 6 3 3 8 11 2 6 15 14 16 17 6
13 14 14 15 15 19 19 18 18 16 10 2 2 1 2 4 2 4 7 8 12 10 10 12 6 2 8 10 15 10 12 11 7 11 10 3 2 3 4 3 2 6 9 16 19 17 16
13 14 14 14 12 16 17 15 16 17 15 1 2 1 2 4 4 8 4 7 7 7 6 11 6 5 10 8 4 7 5 5 2 0 5 4 2 3 2 4 7 3 8 6 7 8 13
14 15 16 13 10 13 16 14 16 17 18 5 4 3 2 3 5 2 7 3 5 4 4 5 6 9 4 2 2 1 3 3 4 7 7 8 9 1 3 2 3 2 15 9 5 2 10
14 15 17 15 12 13 15 15 15 17 19 10 3 6 2 3 3 1 3 3 2 2 3 4 9 7 5 2 2 2 3 1 3 4 7 5 5 4 5 4 2 12 16 10 3 1 8
14 14 14 14 14 16 18 19 17 14 19 11 6 12 3 3 2 7 8 6 4 3 3 5 6 4 4 6 4 3 2 3 5 4 4 4 5 4 4 3 1 18 4 5 4 7 8
15 16 17 17 18 19 20 21 20 15 17 18 3 9 8 2 4 10 12 12 5 3 3 3 2 4 3 3 3 2 3 5 6 2 7 4 3 2 4 2 1 5 8 6 6 5 9
Wind_Direction
30 26 20 17 14 11 6 3 359 356 356 353 351 347 343 338 333 328 322 318 314 310 306 300 297 296 293 229 243 270 139 146 152 158 193 188 182 189 198 208 237 233 249 245 243 252 258
29 25 21 16 12 10 7 6 3 359 354 353 348 345 342 336 332 327 322 316 313 307 303 298 285 257 227 254 251 210 144 155 177 172 199 193 201 203 217 245 194 236 238 251 252 255 248
26 19 16 13 10 8 7 5 2 1 355 352 348 343 340 336 332 328 323 315 311 307 303 299 287 202 225 246 242 124 155 189 185 192 172 214 248 190 195 262 280 280 275 273 225 224 229
23 18 13 10 9 6 4 1 359 354 352 348 345 342 338 334 330 328 322 314 310 306 298 288 185 182 247 252 242 266 249 193 205 205 211 256 258 236 191 282 337 289 277 255 222 212 248
21 13 9 7 3 359 357 355 353 350 346 343 342 339 337 333 329 328 322 313 311 308 263 186 133 190 256 282 219 243 196 187 204 219 207 222 172 207 137 178 303 238 255 246 280 237 239
15 10 1 357 354 353 349 348 344 342 341 342 339 338 335 332 330 329 322 312 301 55 222 192 266 245 260 261 131 7 215 175 176 154 178 214 209 187 154 158 228 224 247 249 227 248 204
8 3 360 354 357 354 353 351 348 345 344 343 340 335 336 332 332 330 329 360 10 351 19 237 248 271 328 350 66 250 202 179 166 147 192 211 205 211 206 210 229 225 232 237 229 243 254
3 358 356 352 356 356 355 351 349 348 345 343 343 336 334 332 331 327 338 72 155 250 293 280 251 258 258 261 281 269 142 171 180 208 167 246 234 222 215 217 226 234 250 256 269 265 251
357 355 358 359 356 355 356 352 350 348 346 347 346 337 334 335 327 10 332 49 340 326 279 297 221 231 305 160 216 228 161 195 219 224 210 220 217 215 214 221 224 232 232 245 249 251 261
358 359 357 358 357 356 356 353 351 349 347 345 341 337 337 336 7 331 6 345 334 346 317 265 186 3 26 61 239 218 200 179 215 215 222 249 238 242 217 229 217 240 228 251 260 254 266
0 359 360 359 356 356 354 354 352 350 346 343 337 333 334 334 277 343 312 321 326 265 352 55 65 283 68 282 314 1 26 227 247 248 179 232 244 226 228 230 213 245 196 214 211 219 211
1 360 358 358 356 356 355 355 352 349 345 338 331 330 334 324 304 268 313 311 353 1 259 22 47 14 355 317 285 0 330 183 284 261 254 261 278 302 230 265 226 237 155 153 151 145 245
360 0 356 356 356 358 355 354 352 349 345 335 331 332 328 304 302 324 318 353 15 158 343 11 350 332 323 329 345 5 326 207 220 244 246 277 256 258 263 274 315 154 112 236 254 209 240
359 359 356 357 357 358 356 356 353 351 346 337 335 329 314 12 344 329 353 29 180 22 13 342 333 317 296 22 349 346 359 343 40 14 318 294 289 207 217 215 214 203 192 187 228 215 244
359 357 356 352 350 352 351 350 347 349 344 339 340 324 348 328 341 3 28 52 45 1 339 330 327 6 352 337 342 353 329 282 33 26 348 289 255 332 299 277 215 239 216 233 307 235 347
357 356 354 357 355 353 352 349 349 350 345 341 335 341 297 325 328 20 53 12 360 12 350 343 25 325 323 330 333 348 315 341 349 20 2 321 308 274 314 34 296 239 218 250 223 229 246
358 358 358 358 356 354 355 357 355 353 349 343 37 14 273 332 40 41 60 334 328 343 348 336 312 306 318 316 252 303 270 309 14 335 338 311 318 318 303 320 294 345 310 229 240 223 231
2 359 357 3 7 5 3 3 3 359 355 27 15 19 302 9 43 8 13 318 327 333 328 318 333 273 300 305 285 302 261 259 349 316 331 334 285 292 294 267 281 299 19 344 332 348 238
11 12 10 8 7 6 6 6 5 2 7 350 345 277 313 66 35 358 309 306 277 331 327 326 311 327 313 302 294 270 279 252 306 343 328 309 332 324 306 19 60 39 307 325 276 227 319
17 16 14 11 9 11 11 7 2 359 354 20 42 354 325 22 24 39 328 289 330 310 292 331 295 310 338 318 283 271 287 301 333 290 295 316 224 234 278 278 290 297 315 345 353 354 345
14 15 13 12 11 11 8 6 4 353 345 59 37 1 106 328 336 321 267 274 332 337 250 323 316 337 321 307 308 224 316 312 298 290 46 112 248 270 285 286 286 327 35 43 63 5 50
19 16 14 12 12 8 7 6 4 359 348 65 104 46 337 286 279 306 319 295 317 336 317 303 322 312 316 296 288 298 313 299 260 296 212 262 276 259 280 282 256 85 12 79 52 6 48
17 12 10 8 3 1 4 2 358 360 9 20 287 312 183 255 254 43 252 342 311 322 291 316 301 297 312 294 273 278 271 266 254 269 276 241 209 175 262 251 138 33 359 71 73 37 20
9 5 6 7 15 9 360 355 355 355 356 180 274 160 254 269 193 235 280 306 305 306 289 300 301 138 291 309 301 277 268 276 256 271 266 238 215 226 261 216 126 108 41 73 78 39 24
2 0 356 355 7 8 3 358 355 356 344 279 247 199 236 264 233 286 261 283 285 256 261 280 285 283 318 321 345 342 327 15 21 181 340 286 205 249 269 49 118 66 28 356 5 41 16
4 360 355 352 355 357 359 356 354 353 350 329 285 234 200 263 240 267 303 253 300 299 319 258 339 310 325 282 345 257 285 257 310 340 6 19 23 97 14 114 152 15 330 312 296 70 12
359 5 7 14 18 1 356 347 348 349 347 335 268 277 252 255 257 180 242 297 297 332 278 331 333 337 9 308 311 278 293 259 34 32 336 355 355 38 351 95 45 332 320 304 132 298 13
355 355 353 349 347 342 342 338 336 337 343 349 277 272 258 254 320 28 28 20 350 11 351 310 341 358 341 15 14 320 342 16 82 35 7 50 345 14 331 65 347 343 22 62 319 13 13
358 354 349 344 339 334 329 327 328 345 344 347 300 1 328 27 55 83 63 40 28 327 305 330 286 348 324 335 3 321 8 5 13 75 12 41 359 13 38 99 223 359 49 37 25 11 9